Location: Madingley
(52.2167°N, 0.0500°E)
Time: 21:27:37
(UTC+00:00)

CZ-2C R/B - Pass Details

Date: 15 May 2026
Orbit: 702 x 901 km, 98.2° (Epoch: 10 June)

Event Time Altitude Azimuth Distance (km) Brightness Sun altitude
Rises 22:59:16 0° 20° (NNE) 3,501 7.4 -17.7°
Reaches altitude 10° 23:01:58 10° 31° (NNE) 2,573 6.3 -17.8°
Maximum altitude 23:07:03 31° 93° (E) 1,524 4.4 -17.9°
Enters shadow 23:09:28 23° 133° (SE) 1,818 4.5 -18.0°
